Terminal Aerodrome Forecast
Issued by NWS

Home | Current Version | Previous Version | Text Only | Print | Product List | Glossary On
Versions: 1 2 3 4 5 6 7 8 9 10 11 12 13 14 15 16
000
FTUS41 KGYX 271120
TAFAUG
TAF
KAUG 271120Z 2712/2812 07003KT 1 1/2SM BR OVC002
      TEMPO 2712/2714 1/4SM FG
     FM271500 VRB03KT 3SM BR OVC005
     FM271800 VRB03KT 5SM BR BKN008
     FM280100 13004KT 1 1/2SM BR OVC003=

USA.gov is the U.S. government's official web portal to all federal, state and local government web resources and services.